TimeMST,TemperatureF,Dew PointF,Humidity,Sea Level PressureIn,VisibilityMPH,Wind Direction,Wind SpeedMPH,Gust SpeedMPH,PrecipitationIn,Events,Conditions,WindDirDegrees,DateUTC
12:15 AM,14.9,2.1,57,30.12,10.0,NNW,3.5,-,N/A,,Clear,330,2012-12-13 07:15:00
12:35 AM,14.7,2.1,57,30.12,10.0,NW,4.6,-,N/A,,Clear,320,2012-12-13 07:35:00
12:55 AM,14.4,1.2,56,30.12,10.0,NNW,3.5,-,N/A,,Clear,340,2012-12-13 07:55:00
1:15 AM,12.0,0.5,60,30.12,10.0,NW,6.9,-,N/A,,Clear,310,2012-12-13 08:15:00
1:35 AM,13.8,1.2,57,30.12,10.0,NW,4.6,-,N/A,,Clear,310,2012-12-13 08:35:00
1:55 AM,12.6,0.9,60,30.12,10.0,NW,4.6,-,N/A,,Clear,320,2012-12-13 08:55:00
2:15 AM,12.0,0.5,60,30.13,10.0,NW,4.6,-,N/A,,Clear,320,2012-12-13 09:15:00
2:35 AM,12.7,1.2,60,30.13,10.0,NNW,6.9,-,N/A,,Clear,330,2012-12-13 09:35:00
2:55 AM,11.3,-0.0,60,30.13,10.0,NW,5.8,-,N/A,,Clear,310,2012-12-13 09:55:00
3:15 AM,11.1,-0.4,60,30.14,10.0,NW,4.6,-,N/A,,Clear,320,2012-12-13 10:15:00
3:35 AM,10.8,-0.0,62,30.14,10.0,NW,3.5,-,N/A,,Clear,310,2012-12-13 10:35:00
3:55 AM,10.2,-0.2,63,30.13,10.0,North,4.6,-,N/A,,Clear,350,2012-12-13 10:55:00
4:15 AM,9.1,-1.3,63,30.13,10.0,NW,4.6,-,N/A,,Clear,310,2012-12-13 11:15:00
4:35 AM,9.1,-1.3,63,30.13,10.0,NNW,5.8,-,N/A,,Clear,330,2012-12-13 11:35:00
5:15 AM,10.0,-0.8,62,30.14,10.0,NW,4.6,-,N/A,,Clear,320,2012-12-13 12:15:00
5:35 AM,9.5,-0.6,64,30.14,10.0,WNW,5.8,-,N/A,,Clear,300,2012-12-13 12:35:00
5:55 AM,10.0,-0.4,63,30.13,10.0,NNW,6.9,-,N/A,,Clear,330,2012-12-13 12:55:00
6:15 AM,9.9,-0.4,63,30.14,10.0,NW,6.9,-,N/A,,Clear,310,2012-12-13 13:15:00
6:35 AM,10.4,0.1,63,30.14,10.0,NW,5.8,-,N/A,,Clear,310,2012-12-13 13:35:00
6:55 AM,9.5,-0.0,65,30.15,10.0,NW,5.8,-,N/A,,Clear,320,2012-12-13 13:55:00
7:15 AM,10.2,0.5,65,30.15,10.0,NW,3.5,-,N/A,,Clear,310,2012-12-13 14:15:00
7:35 AM,10.2,0.1,64,30.15,10.0,Calm,Calm,-,N/A,,Clear,0,2012-12-13 14:35:00
7:55 AM,13.3,1.2,59,30.15,10.0,North,3.5,-,N/A,,Clear,360,2012-12-13 14:55:00
8:15 AM,15.4,1.8,55,30.15,10.0,Calm,Calm,-,N/A,,Clear,0,2012-12-13 15:15:00
8:55 AM,21.9,4.5,47,30.15,10.0,Calm,Calm,-,N/A,,Clear,0,2012-12-13 15:55:00
9:15 AM,25.5,5.7,43,30.15,10.0,Calm,Calm,-,N/A,,Clear,0,2012-12-13 16:15:00
9:35 AM,28.2,6.1,39,30.15,10.0,Calm,Calm,-,N/A,,Clear,0,2012-12-13 16:35:00
9:55 AM,32.0,6.6,34,30.15,10.0,Calm,Calm,-,N/A,,Clear,0,2012-12-13 16:55:00
10:15 AM,38.7,7.9,28,30.14,10.0,ESE,6.9,-,N/A,,Clear,120,2012-12-13 17:15:00
10:35 AM,40.6,8.2,26,30.14,10.0,ESE,8.1,-,N/A,,Clear,120,2012-12-13 17:35:00
10:55 AM,42.4,8.6,25,30.12,10.0,SE,10.4,-,N/A,,Clear,130,2012-12-13 17:55:00
11:15 AM,43.9,9.3,24,30.12,10.0,SE,9.2,-,N/A,,Clear,130,2012-12-13 18:15:00
11:35 AM,46.9,11.3,24,30.10,10.0,ESE,11.5,-,N/A,,Clear,120,2012-12-13 18:35:00
11:55 AM,50.4,13.3,23,30.08,10.0,SE,15.0,-,N/A,,Clear,130,2012-12-13 18:55:00
12:15 PM,51.1,15.3,24,30.07,10.0,SE,11.5,19.6,N/A,,Clear,140,2012-12-13 19:15:00
12:35 PM,51.8,15.8,24,30.04,10.0,SE,12.7,-,N/A,,Clear,130,2012-12-13 19:35:00
12:55 PM,53.1,15.6,23,30.03,10.0,SE,15.0,-,N/A,,Clear,140,2012-12-13 19:55:00
1:15 PM,53.6,15.6,22,30.02,10.0,SE,16.1,19.6,N/A,,Clear,140,2012-12-13 20:15:00
1:35 PM,54.0,15.8,22,30.01,10.0,SE,16.1,23.0,N/A,,Clear,130,2012-12-13 20:35:00
1:55 PM,53.2,16.7,24,30.00,10.0,SE,17.3,21.9,N/A,,Clear,140,2012-12-13 20:55:00
2:15 PM,53.4,17.2,24,29.99,10.0,SE,16.1,24.2,N/A,,Clear,130,2012-12-13 21:15:00
2:35 PM,52.2,17.6,26,29.98,10.0,SE,11.5,24.2,N/A,,Clear,130,2012-12-13 21:35:00
2:55 PM,51.6,18.0,27,29.98,10.0,SE,13.8,21.9,N/A,,Clear,130,2012-12-13 21:55:00
3:35 PM,52.0,16.3,24,29.98,10.0,SE,15.0,23.0,N/A,,Clear,140,2012-12-13 22:35:00
5:15 PM,44.8,15.4,31,29.98,10.0,SSE,9.2,-,N/A,,Clear,160,2012-12-14 00:15:00
6:15 PM,44.1,14.7,31,29.99,10.0,South,10.4,-,N/A,,Scattered Clouds,170,2012-12-14 01:15:00
6:35 PM,43.9,14.4,30,30.00,10.0,South,10.4,17.3,N/A,,Clear,170,2012-12-14 01:35:00
6:55 PM,42.4,14.0,32,30.00,10.0,SSE,11.5,-,N/A,,Clear,150,2012-12-14 01:55:00
7:15 PM,41.0,14.0,33,29.99,10.0,SSE,10.4,-,N/A,,Clear,150,2012-12-14 02:15:00
7:35 PM,41.0,14.4,34,29.99,10.0,SSE,9.2,-,N/A,,Clear,150,2012-12-14 02:35:00
7:55 PM,40.1,14.4,35,29.99,10.0,SSE,8.1,-,N/A,,Clear,150,2012-12-14 02:55:00
8:15 PM,35.8,13.1,39,29.98,10.0,Calm,Calm,-,N/A,,Clear,0,2012-12-14 03:15:00
8:35 PM,34.5,14.0,43,29.98,10.0,Calm,Calm,-,N/A,,Clear,0,2012-12-14 03:35:00
8:55 PM,30.7,13.5,49,29.98,10.0,Calm,Calm,-,N/A,,Clear,0,2012-12-14 03:55:00
9:15 PM,30.7,14.2,50,29.97,10.0,Calm,Calm,-,N/A,,Clear,0,2012-12-14 04:15:00
9:35 PM,29.7,13.8,52,29.97,10.0,ESE,3.5,-,N/A,,Clear,110,2012-12-14 04:35:00
9:55 PM,25.7,12.6,58,29.96,10.0,Calm,Calm,-,N/A,,Clear,0,2012-12-14 04:55:00
10:15 PM,28.8,14.2,55,29.96,10.0,SSE,5.8,-,N/A,,Clear,160,2012-12-14 05:15:00
10:35 PM,41.2,18.1,40,29.95,10.0,South,9.2,-,N/A,,Scattered Clouds,170,2012-12-14 05:35:00
10:55 PM,41.9,19.2,40,29.94,10.0,SSE,10.4,16.1,N/A,,Mostly Cloudy,160,2012-12-14 05:55:00
11:15 PM,41.4,20.1,43,29.94,10.0,SSE,11.5,-,N/A,,Overcast,160,2012-12-14 06:15:00
11:35 PM,41.5,19.8,42,29.95,10.0,South,8.1,-,N/A,,Overcast,170,2012-12-14 06:35:00
11:55 PM,42.1,20.3,42,29.95,10.0,South,10.4,-,N/A,,Overcast,170,2012-12-14 06:55:00